This demonstration page uses our WeatherBlox Daily Observations layout. Learn more.

Left ArrowRight Arrow

36.19886, -115.1175

Hourly Observations for July 31, 2021

Temp ( °F °C ) Dew Point ( °F °C ) Humidity (%) Winds ( mph kmh ) Pressure ( in mb ) Visibility ( mi km ) Precip ( " mm )
12:53 am 00:53 Mostly Clear 88 31.1 60 15.6 39 39 NW 13 20 29.95 1014 10 16 N/A
1:53 am 01:53 Clear 89 31.7 58 14.4 35 35 NNW 13 20 29.95 1014 10 16 N/A
2:53 am 02:53 Clear 87 30.6 60 15.6 40 40 NNW 14 22 29.93 1014 10 16 N/A
3:53 am 03:53 Clear 87 30.6 59 15 39 39 NNW 9 15 29.95 1014 10 16 N/A
4:53 am 04:53 Clear 85 29.4 60 15.6 43 43 NNW 8 13 29.96 1015 10 16 N/A
5:53 am 05:53 Partly Cloudy 85 29.4 60 15.6 43 43 NW 13 20 29.98 1015 10 16 N/A
6:53 am 06:53 Mostly Sunny 86 30 60 15.6 42 42 NNW 12 19 30.00 1016 10 16 N/A
7:53 am 07:53 Sunny 88 31.1 60 15.6 39 39 NNW 15 24 30.01 1016 10 16 N/A
8:53 am 08:53 Sunny 91 32.8 60 15.6 35 35 NNW 15 24 30.02 1017 10 16 N/A
9:53 am 09:53 Sunny 92 33.3 59 15 33 33 NNW 12 19 30.03 1017 10 16 N/A
10:53 am 10:53 Sunny 95 35 59 15 30 30 undefined N/A 30.03 1017 10 16 N/A
11:53 am 11:53 Sunny 96 35.6 59 15 29 29 NNW 7 11 30.01 1016 10 16 N/A
12:53 pm 12:53 Mostly Cloudy 95 35 58 14.4 29 29 VRB 5 7 29.98 1015 10 16 N/A
1:53 pm 13:53 Partly Cloudy 95 35 58 14.4 29 29 N N/A 29.97 1015 10 16 N/A
2:32 pm 14:32 Mostly Cloudy with Nearby Thunderstorms 97 36.1 57 13.9 26 26 WNW 14 22 29.80 1009 10 16 N/A
2:53 pm 14:53 Cloudy with Nearby Thunderstorms 96 35.6 57 13.9 27 27 NNW 12 19 29.96 1014 10 16 N/A
3:24 pm 15:24 Cloudy with Light Rain 82 27.8 69 20.6 65 65 WSW 33 54 29.88 1012 3 5 N/A
3:26 pm 15:26 Cloudy with Rain 78 25.6 69 20.6 74 74 WSW 33 54 29.90 1013 2 3 N/A
3:30 pm 15:30 Cloudy with Heavy Rain 74 23.3 69 20.6 85 85 WSW 29 46 29.93 1013 1 1 N/A
3:37 pm 15:37 Cloudy with Strong Thunderstorms 76 24.4 68 20 77 77 WSW 21 33 29.92 1013 1 1 N/A
3:44 pm 15:44 Cloudy with Strong Thunderstorms 80 26.7 68 20 67 67 W 16 26 29.89 1012 2 2 N/A
3:48 pm 15:48 Cloudy with Thunderstorms 81 27 68 20 66 66 W 13 20 29.89 1012 3 5 N/A
3:53 pm 15:53 Mostly Cloudy with Thunderstorms 83 28.3 68 20 61 61 W 15 24 29.98 1015 10 16 N/A
4:06 pm 16:06 Mostly Sunny 84 28.9 67 19.4 57 57 W 12 19 29.87 1011 10 16 N/A
4:53 pm 16:53 Sunny 88 31.1 68 20 52 52 WNW 8 13 29.96 1015 10 16 N/A
5:53 pm 17:53 Sunny 92 33.3 61 16.1 36 36 WNW 5 7 29.94 1014 10 16 N/A
6:53 pm 18:53 Mostly Sunny 92 33.3 59 15 33 33 N N/A 29.95 1014 10 16 N/A
7:53 pm 19:53 Mostly Cloudy 92 33.3 59 15 33 33 N N/A 29.95 1014 10 16 N/A
8:53 pm 20:53 Clear 91 32.8 63 17.2 39 39 N N/A 29.96 1015 10 16 N/A
9:53 pm 21:53 Mostly Cloudy 89 31.7 66 18.9 47 47 S 5 7 29.97 1015 10 16 N/A
10:53 pm 22:53 Cloudy 88 31.1 66 18.9 48 48 N N/A 29.98 1015 10 16 N/A
11:53 pm 23:53 Clear 87 30.6 66 18.9 50 50 N 3 6 29.98 1015 10 16 N/A

Powered by AerisWeather